Regional Weather Roundup
Issued by NWS

Home | Current Version | Previous Version | Graphics & Text | Print | Product List | Glossary On
Versions: 1 2 3 4 5 6 7 8 9 10 11 12 13 14 15 16 17 18 19 20 21 22 23 24 25 26 27 28 29 30 31 32 33 34 35 36 37 38 39 40 41 42 43 44 45 46 47 48 49 50
000
ASUS45 KSLC 261310
RWRUT

UTAH REGIONAL WEATHER ROUNDUP
NATIONAL WEATHER SERVICE SALT LAKE CITY UT
700 AM MDT SUN MAR 26 2017

UTZ001>011-023>025-261400-

NORTHERN UTAH

CITY           SKY/WX    TMP DP  RH WIND       PRES   REMARKS
BRIGHAM CITY     N/A     35  33  92 CALM      30.03R
HILL AFB       CLEAR     34  30  85 E13       30.02R WCI  25
LOGAN          CLEAR     32  28  85 CALM      30.02F
OGDEN          PTCLDY    32  31  96 S7        30.02R WCI  26
SALT LAKE CITY PTCLDY    34  32  92 SE7       30.02R WCI  28
WENDOVER       CLEAR     37  29  72 VRB3      30.03R
HEBER CITY     PTCLDY    27  25  93 E5        30.02R WCI  21

$$

UTZ011>015-024>027-261400-

CENTRAL/NORTHEAST UTAH

CITY           SKY/WX    TMP DP  RH WIND       PRES   REMARKS
PROVO AIRPORT  MOCLDY    38  36  92 SE3       30.04S
MOAB/CANYONLAN CLEAR     38  32  79 VRB3      29.92R
DELTA          CLEAR     32  32 100 S5        30.04R WCI  27
PRICE          CLEAR     36  25  64 NW13      29.96R WCI  27
RICHFIELD      CLEAR     28  28 100 CALM      30.06R
ROOSEVELT      CLOUDY    41  32  70 W5        29.97S
VERNAL         CLOUDY    37  30  75 E3        29.96R

$$

UTZ013>016-019>022-027-261400-

SOUTHERN UTAH

CITY           SKY/WX    TMP DP  RH WIND       PRES   REMARKS
BRYCE CANYON   CLEAR     26  22  84 NW9       30.00S WCI  17
CEDAR CITY     FOG       26  24  92 N3        30.03R VSB 1
MILFORD        FOG       28  27  96 S5        30.04R VSB 1/4 WCI  23
ST GEORGE      SUNNY     41  35  79 S6        30.02S
HANKSVILLE     CLEAR     34  30  86 SE6       29.97R WCI  29
KANAB          CLEAR     28  28 100 CALM      30.06R
BLANDING       MOCLDY    32  32 100 CALM      30.01R

$$

REGIONAL REPORTS     COLORADO/ARIZONA

CITY           SKY/WX    TMP DP  RH WIND       PRES   REMARKS
CRAIG, CO      CLOUDY    37  31  78 W12       29.97R WCI  29
GRAND JUNCTION CLOUDY    46  38  73 N8        29.91R
RIFLE, CO      CLOUDY    43  37  79 W7        29.92R
MONTROSE, CO   CLOUDY    39  36  89 S9        29.94R WCI  33
CORTEZ, CO     CLOUDY    40  39  97 NE3       29.94R
COLORADO CITY    N/A     30  28  93 CALM      30.05R
PAGE, AZ       CLEAR     46  33  60 NW5       29.96S
GRAND CANYON   PTCLDY    24  23  96 CALM      30.03S
KINGMAN, AZ    PTCLDY    40  32  73 E7        30.00R
FLAGSTAFF, AZ  CLEAR     33  23  66 CALM      30.00R

$$

REGIONAL REPORTS    NEVADA/IDAHO/WYOMING

CITY           SKY/WX    TMP DP  RH WIND       PRES   REMARKS
LAS VEGAS, NV  PTCLDY    54  37  52 CALM      29.98R
ELY, NY        PTCLDY    24  20  84 S12       30.04R WCI  13
ELKO, NV       CLEAR     29  25  85 E6        30.00R WCI  23
POCATELLO, ID  CLEAR     27  25  92 W7        30.01R WCI  19
BURLEY, ID     CLEAR     33  27  78 S10       29.99R WCI  25
FORT BRIDGER,    N/A     29  27  92 W9        30.03S WCI  21
EVANSTON, WY   CLEAR     24  21  88 SW8       30.01R WCI  15
ROCK SPRINGS,  CLEAR     31  26  82 W10       29.99R WCI  22

$$



USA.gov is the U.S. government's official web portal to all federal, state and local government web resources and services.